Theta_e
313 314 313 312 310 308 303 289 283 297 297 288 284 283 286 292 291 293 289 287 285 283 284 282 282 284 288 295 293 287 289 289 284 287 295 298 295 292 294 294 290 290 288 293
313 314 313 311 310 309 303 292 290 297 295 282 282 285 288 290 290 290 290 288 287 286 284 281 284 288 295 296 293 289 291 287 280 284 287 292 290 292 290 292 292 292 292 293
313 313 312 310 309 309 297 292 284 289 289 287 287 287 286 287 293 291 292 289 289 285 282 284 283 287 293 295 295 300 294 286 284 279 283 287 285 289 291 287 288 292 295 296
313 312 312 311 310 308 297 288 284 288 286 287 290 290 288 286 286 292 293 289 289 288 281 282 282 286 288 293 296 294 288 283 283 285 287 288 287 287 289 288 289 287 296 295
311 311 312 312 310 307 294 288 291 293 291 292 290 290 288 288 290 290 287 289 290 290 286 284 282 284 282 286 288 288 290 279 287 284 288 288 287 289 290 291 292 292 295 295
311 312 312 312 311 307 297 298 300 295 292 291 289 289 289 289 292 291 292 292 288 286 289 293 293 291 288 286 286 284 286 284 284 278 286 286 284 289 293 296 296 297 292 298
312 312 312 312 312 309 304 302 300 293 288 290 290 291 292 292 291 290 292 294 290 293 296 293 290 289 289 288 287 287 285 284 286 278 284 281 292 300 299 296 295 296 297 304
311 312 312 312 312 312 306 305 301 294 287 291 292 293 291 292 292 290 291 293 295 294 289 283 279 278 280 284 287 287 290 287 283 278 282 290 296 296 295 292 293 296 295 298
311 311 312 312 313 312 308 307 306 298 291 291 295 292 292 288 288 289 290 294 295 293 290 286 280 278 282 281 285 291 290 289 284 285 281 287 292 296 300 300 288 297 296 295
311 312 312 313 313 313 308 304 306 299 292 295 295 292 291 294 290 288 291 290 289 293 287 283 281 281 285 281 281 282 284 285 281 282 285 291 294 298 302 291 289 297 297 296
311 312 313 313 313 313 306 302 305 301 295 296 298 299 296 295 293 288 290 287 289 289 285 284 282 284 285 285 287 285 285 283 285 285 286 286 296 298 292 295 298 297 297 298
312 312 313 313 313 313 309 303 309 307 299 296 298 300 303 302 300 295 294 289 292 292 287 287 287 285 286 286 282 291 285 287 285 286 286 294 297 297 297 299 298 298 298 300
312 312 313 313 313 313 308 302 306 302 296 292 292 294 299 302 304 304 293 295 298 294 294 290 288 286 287 282 285 288 290 292 286 288 292 295 297 300 302 301 301 302 301 301
312 312 312 312 313 314 308 301 300 296 292 287 292 301 298 302 300 302 302 300 301 297 291 288 288 286 290 286 287 288 291 292 288 289 294 297 298 300 301 302 303 303 303 303
312 312 312 312 312 313 307 307 301 299 297 291 290 295 299 300 298 298 298 296 292 292 289 288 286 290 287 290 289 287 295 292 289 289 295 295 296 300 302 301 301 303 303 304
312 312 313 313 312 311 306 299 299 301 298 295 290 294 293 297 298 296 296 295 293 292 289 288 290 292 289 285 285 292 296 299 299 295 299 300 301 302 303 302 303 304 304 305
311 311 311 312 311 307 303 298 301 304 298 291 295 294 297 301 295 293 294 294 293 292 291 288 289 289 290 287 284 293 297 299 299 300 300 298 300 299 303 304 304 306 306 307
311 311 310 310 309 306 300 303 306 303 295 292 288 293 298 301 296 293 292 289 290 292 292 292 289 290 289 285 292 296 297 300 299 298 300 299 300 301 301 303 303 301 303 304
311 311 311 305 302 298 300 309 307 300 296 293 294 284 291 297 296 294 290 289 287 289 289 290 289 286 285 288 293 295 297 298 298 299 299 299 298 298 298 299 299 300 302 304
310 304 302 299 301 311 307 299 299 299 298 296 292 296 292 296 296 296 295 295 288 287 290 293 288 285 293 295 295 297 298 299 298 297 295 297 297 297 298 297 298 298 298 301
301 300 301 301 309 300 301 299 294 293 290 294 294 297 293 298 292 295 297 293 291 284 289 288 280 286 291 295 295 297 299 301 299 298 301 300 299 297 298 298 298 298 298 297
303 302 303 300 298 297 291 289 291 289 290 293 294 295 296 296 295 294 294 290 287 282 289 282 276 289 292 293 295 296 297 300 300 300 299 298 299 299 299 299 298 298 298 298
303 302 299 296 294 286 286 283 287 287 290 292 291 291 296 298 295 296 295 287 284 288 281 281 285 289 292 292 294 295 296 300 300 299 300 300 299 299 298 297 298 299 299 299
301 301 288 291 288 290 289 290 289 292 291 292 290 291 294 294 295 289 287 287 286 281 272 276 286 289 292 293 294 294 293 295 299 299 299 299 299 298 299 300 300 299 298 299
301 297 287 291 294 293 293 293 291 293 291 291 292 291 290 288 288 287 286 284 279 278 278 284 289 291 292 293 292 292 291 293 297 299 299 299 299 298 297 298 299 299 299 297
303 298 294 293 291 292 292 291 291 291 291 291 290 288 288 286 286 285 285 282 277 282 285 289 290 291 292 291 292 293 291 292 293 297 299 299 299 298 297 298 297 297 298 298
298 296 296 294 293 294 293 292 293 292 291 288 288 285 284 287 284 284 284 281 284 286 287 288 289 291 292 291 290 292 292 292 294 296 298 298 299 299 298 296 296 297 298 299
Wind_Speed
17 17 17 17 19 21 6 4 4 7 8 7 3 2 6 6 4 3 4 3 6 6 7 5 4 7 4 5 6 3 2 1 5 10 13 8 5 5 7 8 12 6 4 8
16 16 16 15 14 11 4 5 4 6 5 5 4 6 5 5 5 4 4 4 3 2 5 3 5 3 3 7 5 7 5 2 4 9 2 2 0 4 5 5 3 15 14 7
16 16 15 14 12 8 4 3 5 5 6 1 2 6 5 6 5 9 3 4 2 1 2 4 4 4 6 4 5 9 5 2 7 8 1 5 7 14 10 2 6 6 14 8
16 15 14 12 10 8 3 3 0 2 4 3 5 3 4 7 6 7 7 4 3 5 3 2 5 5 3 4 5 4 5 5 8 18 21 14 14 18 18 6 9 5 6 10
17 15 13 12 9 5 4 2 2 1 3 7 5 2 2 6 6 3 7 7 9 4 4 4 3 3 2 5 3 5 6 4 9 17 14 17 16 17 16 18 19 12 15 12
16 14 13 11 6 2 1 1 0 2 4 3 2 2 5 10 13 6 11 11 4 5 13 11 12 12 6 6 8 8 9 4 3 7 3 7 6 18 13 6 9 5 6 1
15 14 12 10 6 5 1 1 1 1 3 2 3 6 13 13 13 6 8 9 5 5 9 9 7 11 14 10 13 9 8 5 3 5 3 4 4 6 14 17 13 14 11 14
14 13 12 10 7 2 2 2 1 1 3 4 9 9 9 9 8 6 9 5 6 5 3 3 4 2 2 10 12 12 7 5 5 3 2 5 6 7 6 6 8 15 13 15
14 13 11 9 7 2 2 2 2 2 2 3 7 6 7 3 4 7 4 6 5 3 1 3 4 4 3 1 4 11 9 5 6 3 4 7 6 13 6 5 7 15 14 14
14 13 11 10 7 2 3 1 3 2 1 3 2 2 3 2 3 4 6 7 7 3 2 2 3 2 2 5 9 7 6 4 13 7 5 1 14 16 4 6 1 11 13 11
13 12 11 9 6 0 4 1 3 1 1 4 1 3 3 2 2 3 6 6 3 2 3 3 3 3 4 2 4 6 5 4 3 3 7 2 18 6 8 3 2 9 9 9
13 11 9 7 3 4 4 2 2 2 1 5 2 5 5 4 2 2 3 2 3 3 3 3 4 3 5 7 3 5 3 3 2 1 3 8 10 5 6 4 5 5 6 8
12 8 6 5 2 6 4 2 2 1 2 5 3 2 1 3 5 4 1 2 4 3 0 3 2 3 4 5 5 4 6 6 1 4 4 9 3 8 8 6 8 5 5 7
9 7 5 3 4 8 5 2 1 3 3 1 5 2 2 2 4 2 3 4 4 4 3 3 3 4 6 5 4 3 2 6 4 4 6 6 7 10 9 11 9 8 4 6
7 7 5 2 6 9 3 1 3 2 1 2 4 5 1 1 4 7 7 5 4 3 4 3 4 3 5 3 3 3 9 6 5 3 10 6 8 12 15 11 8 8 8 9
7 6 2 7 9 8 2 2 1 2 2 0 4 2 2 2 6 8 7 4 3 3 3 3 3 2 4 4 4 13 16 12 11 8 14 8 11 13 13 8 7 6 7 7
5 2 1 5 9 2 2 4 2 5 3 1 3 3 2 3 3 3 2 4 3 3 1 2 3 3 5 3 5 14 15 14 17 15 12 11 14 10 14 13 12 10 8 8
5 2 2 4 6 1 1 1 6 4 3 2 1 4 1 5 2 1 0 2 2 3 1 1 2 3 2 4 13 12 12 13 14 17 15 13 14 17 17 14 14 12 10 11
4 4 2 2 1 1 2 6 6 2 3 1 1 2 3 2 1 2 1 2 3 1 2 2 1 3 4 5 8 11 9 9 11 12 12 14 17 17 18 18 19 16 14 10
4 2 1 2 2 4 5 2 1 1 1 0 3 2 3 2 1 2 3 1 2 2 1 2 3 3 4 5 6 5 7 6 8 10 16 16 14 15 16 18 15 15 14 14
1 1 1 1 1 2 1 2 1 1 3 3 4 4 3 0 1 1 0 3 2 3 1 1 2 3 4 6 7 7 6 5 6 6 7 10 12 14 14 15 16 15 16 16
2 2 3 2 1 2 2 3 2 1 4 2 3 3 5 2 2 2 1 3 2 2 1 4 3 4 4 6 6 7 4 3 5 6 7 8 9 9 8 8 11 13 14 14
1 1 1 3 1 6 3 4 5 4 4 3 2 3 2 0 1 2 1 4 1 2 4 2 5 4 5 4 5 7 5 3 3 4 4 3 3 5 6 7 8 8 10 12
2 2 5 2 4 3 5 5 5 6 4 4 1 2 2 2 2 1 4 1 3 3 4 4 3 4 6 6 2 2 5 4 2 3 3 2 3 4 5 4 4 6 7 8
1 2 2 4 4 3 4 3 3 4 1 1 0 1 2 3 4 3 3 2 2 4 5 4 4 5 6 6 5 6 5 2 5 3 2 1 3 3 4 4 4 4 4 5
2 2 1 2 1 4 3 2 4 1 3 0 3 3 4 4 1 3 1 2 4 4 3 4 3 4 5 5 5 6 4 3 3 5 4 3 4 3 3 5 4 4 4 6
3 4 2 2 2 5 3 3 4 2 3 2 2 3 1 1 2 1 3 4 3 3 4 2 3 4 6 6 5 6 4 2 0 0 3 3 3 3 2 5 5 5 4 5
Wind_Direction
330 334 336 339 338 337 28 28 7 320 348 52 34 31 315 292 283 342 297 228 209 195 188 209 236 213 151 141 143 125 166 192 266 243 265 290 319 278 235 224 221 235 144 248
332 333 338 338 336 6 335 355 294 319 30 62 349 323 299 273 314 323 313 290 196 164 197 219 224 211 109 131 138 167 174 94 313 300 303 66 150 323 319 289 314 211 220 238
332 334 336 336 336 9 83 10 7 338 35 61 59 335 322 312 307 291 263 280 310 90 242 243 222 212 178 153 139 142 106 150 209 250 25 23 302 302 322 18 272 253 232 228
333 334 336 330 345 12 89 29 204 179 342 324 317 236 267 296 314 355 334 299 190 67 276 278 226 231 151 71 142 78 107 243 247 261 270 275 267 275 287 266 245 230 251 218
333 334 330 323 348 42 72 84 29 79 273 288 301 314 243 287 306 328 284 257 281 281 249 226 306 318 109 203 128 136 177 244 276 275 253 248 262 261 261 256 252 246 260 264
332 326 324 321 352 88 109 203 309 147 268 275 278 263 320 315 305 254 259 288 319 255 249 243 249 247 231 217 164 176 175 208 252 258 294 315 272 235 227 93 32 306 237 274
327 326 325 325 327 185 177 231 152 188 277 266 270 283 303 319 335 296 280 282 250 228 312 300 249 238 235 211 216 161 180 194 249 274 290 179 167 132 89 100 52 21 360 350
330 329 325 323 323 269 184 185 173 163 274 262 290 322 323 328 325 306 304 265 243 293 286 306 297 245 211 230 210 187 161 134 268 252 231 285 170 27 38 56 44 17 354 351
330 330 327 324 326 324 178 188 156 141 305 266 298 326 312 325 305 326 282 283 280 342 32 250 223 223 149 276 94 148 132 151 249 267 248 202 57 344 331 120 40 357 355 354
330 330 326 324 327 294 153 211 148 121 233 276 306 298 333 266 259 277 285 339 329 60 334 292 302 245 196 201 174 167 155 184 224 232 261 268 344 317 239 77 27 333 339 344
332 331 331 331 331 241 127 242 173 156 228 291 257 285 276 289 235 301 320 345 345 320 328 313 311 298 349 4 47 132 161 196 165 199 222 217 352 338 69 78 5 321 323 331
328 326 328 330 344 148 125 120 107 147 248 262 249 260 248 249 239 287 319 271 286 345 318 331 316 340 330 329 61 6 71 25 11 262 336 324 308 340 77 29 285 325 305 322
332 329 336 349 60 151 124 141 137 104 357 297 1 316 307 237 225 185 262 311 328 327 53 313 323 348 321 359 29 352 4 34 360 325 347 348 310 82 23 351 316 312 301 304
340 339 335 349 101 150 133 140 186 102 129 43 291 347 55 20 45 191 219 310 318 303 27 15 5 338 360 350 318 342 338 303 315 243 3 5 222 351 346 331 308 306 303 345
349 332 313 177 140 148 134 172 203 171 87 261 283 311 145 23 87 73 52 45 38 13 15 4 20 348 341 323 288 5 350 358 6 343 331 290 276 300 311 307 296 298 326 349
345 341 83 145 149 144 113 334 274 189 123 73 321 270 209 33 26 29 36 55 65 60 29 359 338 315 330 346 1 341 354 357 357 357 345 341 314 290 308 304 312 308 321 329
340 320 100 180 161 123 167 190 215 144 104 96 288 316 190 148 75 14 34 7 52 77 62 20 338 333 350 350 11 342 343 354 9 9 348 14 10 9 3 356 339 325 319 315
319 271 52 139 150 61 339 287 125 113 94 92 272 274 161 172 123 145 52 83 38 18 37 334 337 317 348 21 340 355 346 343 15 11 15 22 26 27 19 4 1 9 5 344
269 213 150 77 55 37 264 153 115 85 124 246 228 195 280 128 134 134 72 124 73 328 34 342 14 320 42 281 329 339 349 357 354 12 15 20 36 40 31 24 17 13 6 345
161 85 76 325 322 143 105 15 281 195 174 187 236 166 274 120 222 169 139 143 130 99 15 293 37 323 287 327 319 323 341 356 354 26 21 15 23 23 39 33 24 18 13 4
45 107 207 255 310 39 310 302 352 266 267 197 232 224 265 198 99 145 59 116 106 88 56 111 353 315 288 328 340 339 343 8 18 12 29 27 22 26 28 38 36 28 20 17
181 149 104 86 51 25 9 295 324 313 264 235 202 239 202 245 126 137 214 115 96 104 268 74 356 252 278 333 333 328 338 51 48 38 27 25 35 29 23 23 40 42 36 25
123 106 97 61 300 25 74 323 307 317 287 261 342 297 166 83 36 58 66 67 105 109 51 154 235 266 290 312 334 335 357 137 99 66 57 49 14 354 6 5 354 23 45 38
158 132 339 128 311 245 199 207 223 242 231 289 237 239 186 181 116 130 71 21 81 62 39 258 264 256 288 309 306 332 341 310 147 128 124 78 9 349 347 349 333 334 25 45
190 113 285 235 255 265 253 239 303 259 243 336 55 36 99 14 68 30 84 53 6 174 220 232 249 280 295 304 328 331 340 327 203 223 258 322 345 18 357 348 354 5 351 24
170 194 257 241 352 286 311 273 274 338 330 67 40 61 52 33 54 42 26 90 227 246 217 239 274 276 293 294 309 310 318 287 261 201 200 230 273 300 321 327 337 0 354 8
207 257 200 173 243 232 236 191 248 239 63 41 66 56 211 206 75 315 165 200 227 237 265 266 248 263 287 305 320 313 336 334 352 66 222 227 269 301 318 308 300 330 345 324